Location: El Álamo
(40.2307°N, 3.9945°W)
Time: 04:55:26
(UTC+00:00)

Ariane Rocket - Pass Details

Date: 19 May 2025
Orbit: 755 x 765 km, 98.5° (Epoch: 23 June)

Event Time Altitude Azimuth Distance (km) Brightness Sun altitude
Exits shadow 21:17:05 28° 118° (ESE) 1,389 3.8 -17.3°
Maximum altitude 21:19:05 41° 70° (ENE) 1,096 3.6 -17.5°
Drops below altitude 10° 21:23:49 10° 1° (N) 2,306 6.1 -18.1°
Sets 21:26:14 0° 355° (N) 3,237 7.1 -18.4°
